Castaic Lake Weather Center

Moon Phase Calendar



Castaic Lake Water Level
Online Cameras

 


      

Current Conditions in Castaic
6/19/2021 8:42:37 AM

83°F
Feels Like 81
Clear
Humidity
30%
Pressure
29.77"
Wind
4.4 mph (SSW)
Dew Point
49°F
UV Index
4/10 (Moderate)
Visibility
6 mi

Hourly Forecast

Date & Time Sat, Jun 19
8:00 AM
Sat, Jun 19
9:00 AM
Sat, Jun 19
10:00 AM
Sat, Jun 19
11:00 AM
Sat, Jun 19
12:00 PM
Sat, Jun 19
1:00 PM
Sat, Jun 19
2:00 PM
Sat, Jun 19
3:00 PM
Sat, Jun 19
4:00 PM
Sat, Jun 19
5:00 PM
Sat, Jun 19
6:00 PM
Sat, Jun 19
7:00 PM
Sat, Jun 19
8:00 PM
Sat, Jun 19
9:00 PM
Sat, Jun 19
10:00 PM
Sat, Jun 19
11:00 PM
Sun, Jun 20
12:00 AM
Sun, Jun 20
1:00 AM
Sun, Jun 20
2:00 AM
Sun, Jun 20
3:00 AM
Sun, Jun 20
4:00 AM
Sun, Jun 20
5:00 AM
Sun, Jun 20
6:00 AM
Sun, Jun 20
7:00 AM
Sun, Jun 20
8:00 AM
Sun, Jun 20
9:00 AM
Sun, Jun 20
10:00 AM
Sun, Jun 20
11:00 AM
Sun, Jun 20
12:00 PM
Sun, Jun 20
1:00 PM
Sun, Jun 20
2:00 PM
Sun, Jun 20
3:00 PM
Sun, Jun 20
4:00 PM
Sun, Jun 20
5:00 PM
Sun, Jun 20
6:00 PM
Sun, Jun 20
7:00 PM
Sun, Jun 20
8:00 PM
Sun, Jun 20
9:00 PM
Sun, Jun 20
10:00 PM
Sun, Jun 20
11:00 PM
Mon, Jun 21
12:00 AM
Mon, Jun 21
1:00 AM
Mon, Jun 21
2:00 AM
Mon, Jun 21
3:00 AM
Mon, Jun 21
4:00 AM
Mon, Jun 21
5:00 AM
Mon, Jun 21
6:00 AM
Mon, Jun 21
7:00 AM
Condition
Clear

Clear

Clear

Clear

Clear

Clear

Clear

Clear

Clear

Clear

Clear

Clear

Clear

Clear

Clear

Clear

Clear

Clear

Clear

Clear

Clear

Clear

Clear

Clear

Clear

Clear

Clear

Clear

Clear

Clear

Clear

Clear

Clear

Clear

Clear

Clear

Clear

Clear

Clear

Clear

Clear

Clear

Clear

Clear

Clear

Clear

Clear

Clear
Temperature 83°F83°F84°F87°F91°F94°F97°F97°F95°F94°F91°F87°F79°F75°F75°F75°F74°F74°F72°F70°F70°F70°F70°F77°F83°F88°F92°F95°F97°F98°F98°F97°F96°F94°F91°F87°F77°F73°F73°F72°F71°F70°F69°F67°F65°F64°F64°F71°F
Feels Like 81°F81°F82°F84°F87°F91°F94°F93°F92°F90°F88°F85°F78°F74°F74°F74°F73°F73°F71°F69°F69°F69°F69°F76°F81°F85°F88°F91°F93°F94°F93°F93°F92°F90°F87°F84°F76°F72°F71°F70°F70°F68°F67°F65°F64°F63°F62°F70°F
Cloudiness 6%6%6%6%2%1%0%0%0%0%3%2%2%1%1%1%0%0%0%0%0%0%0%0%0%0%0%0%0%0%0%0%0%0%0%0%0%0%0%0%0%0%0%0%0%0%0%0%
Visibility 6 mi6 mi6 mi6 mi6 mi6 mi6 mi6 mi6 mi6 mi6 mi6 mi6 mi6 mi6 mi6 mi6 mi6 mi6 mi6 mi6 mi6 mi6 mi6 mi6 mi6 mi6 mi6 mi6 mi6 mi6 mi6 mi6 mi6 mi6 mi6 mi6 mi6 mi6 mi6 mi6 mi6 mi6 mi6 mi6 mi6 mi6 mi6 mi
Precipitation 0%0%0%0%0%0%0%0%0%0%0%0%0%0%0%0%0%0%0%0%0%0%0%0%0%0%0%0%0%0%0%0%0%0%0%0%0%0%0%0%0%0%0%0%0%0%0%0%
Humidity 32%30%29%27%24%22%20%20%21%22%25%30%41%46%45%42%42%43%47%50%53%53%49%40%32%24%20%18%15%15%14%15%15%17%19%22%32%36%35%34%34%35%37%40%43%48%47%37%
Dew Point 50°F49°F49°F49°F49°F50°F48°F48°F47°F48°F48°F49°F51°F50°F50°F48°F48°F47°F48°F49°F49°F49°F48°F49°F48°F46°F44°F43°F41°F40°F40°F40°F40°F41°F42°F42°F43°F43°F42°F41°F40°F39°F40°F40°F40°F42°F41°F42°F
Pressure 29.77"29.77"29.77"29.77"29.74"29.74"29.71"29.71"29.71"29.71"29.71"29.71"29.74"29.74"29.77"29.77"29.77"29.77"29.77"29.77"29.77"29.77"29.8"29.8"29.8"29.8"29.8"29.8"29.77"29.77"29.77"29.77"29.77"29.77"29.77"29.8"29.83"29.85"29.85"29.85"29.85"29.85"29.85"29.85"29.88"29.88"29.91"29.91"
Wind Speed 2.2 mph4.4 mph6.2 mph7.5 mph9 mph10.6 mph11.3 mph11.3 mph10.4 mph9.2 mph7.8 mph6 mph4.3 mph3.2 mph1.1 mph0.8 mph1.2 mph1.4 mph1.5 mph1.3 mph1.6 mph1.7 mph0.8 mph0.6 mph1.1 mph4.2 mph6.6 mph8.9 mph11.5 mph13.8 mph13.5 mph12.5 mph12.3 mph11 mph9.1 mph7 mph3.6 mph1.8 mph1.4 mph1.8 mph1.2 mph1 mph2.3 mph3 mph1.9 mph1.6 mph1.9 mph1.4 mph
Wind
Direction
194°
SSW
208°
SSW
206°
SSW
206°
SSW
212°
SSW
211°
SSW
212°
SSW
215°
SW
216°
SW
216°
SW
217°
SW
227°
SW
258°
WSW
285°
WNW
286°
WNW
315°
NW
271°
W
242°
WSW
236°
SW
271°
W
310°
NW
302°
WNW
283°
WNW
241°
WSW
205°
SSW
212°
SSW
214°
SW
215°
SW
213°
SSW
213°
SSW
217°
SW
218°
SW
216°
SW
218°
SW
221°
SW
219°
SW
222°
SW
275°
W
290°
WNW
285°
WNW
280°
W
251°
WSW
253°
WSW
250°
WSW
265°
W
275°
W
299°
WNW
274°
W

Daily Forecast

Date High Low Precip. Humidity
Today
Jun 19

Clear
97 °F
68 °F
0%
24%
Sunday
Jun 20

Clear
98 °F
70 °F
0%
15%
Monday
Jun 21

Clear
93 °F
64 °F
0%
15%
Tuesday
Jun 22

Clear
89 °F
61 °F
0%
17%
Wednesday
Jun 23

Clear
89 °F
61 °F
0%
22%
Thursday
Jun 24

Clear
91 °F
61 °F
0%
21%
Friday
Jun 25

Clear
98 °F
64 °F
0%
14%
Saturday
Jun 26

Clear
106 °F
71 °F
0%
10%
Sunday
Jun 27

Clear
111 °F
80 °F
0%
10%
Monday
Jun 28

Clouds
107 °F
75 °F
0%
10%
Tuesday
Jun 29

Clouds
95 °F
66 °F
0%
28%
Wednesday
Jun 30

Clear
95 °F
65 °F
0%
16%
Thursday
Jul 1

Clear
94 °F
65 °F
0%
19%
Friday
Jul 2

Clear
94 °F
64 °F
0%
23%
Saturday
Jul 3

Clear
94 °F
61 °F
0%
25%
Sunday
Jul 4

Clear
94 °F
61 °F
0%
24%

Temperature 8-14 Day Outlook



Precipitation 8-14 Day Outlook




Quick Links
Castaic Lake News
Castaic Lake Photos
Castaic Lake Videos




About Us
Contact Us
Site Map
Search Site
Advertise With Us
   
Castaic.LakesOnline.com
THE CASTAIC LAKE WEBSITE

Copyright 2021, Lakes Online
Privacy    |    Legal